Location: *
(32.8667°N, 13.1833°E)
Time: 18:57:32
(UTC+00:00)

Cosmos 2233 Rocket - Pass Details

Date: 18 July 2019
Orbit: 953 x 991 km, 82.9° (Epoch: 16 August)

Event Time Altitude Azimuth Distance (km) Brightness Sun altitude
Rises 19:07:45 0° 189° (S) 3,666 6.8 -10.4°
Reaches altitude 10° 19:10:15 10° 191° (S) 2,726 6.1 -10.8°
Maximum altitude 19:16:30 75° 276° (W) 1,021 4.3 -11.9°
Drops below altitude 10° 19:22:50 10° 2° (N) 2,756 6.8 -13.0°
Sets 19:25:23 0° 4° (N) 3,709 7.5 -13.4°
